Weather History for Dickinson, ND

Change the Weather History Date:

Wednesday, December 5, 2012

  Actual Average Record
Temperature  
Mean Temperature 39 °F 20 °F  
Max Temperature 55 °F 31 °F 68 °F (1939)
Min Temperature 23 °F 10 °F -22 °F (1972)
Degree Days  
Heating Degree Days 26 45  
Month to date heating degree days 142 219  
Since 1 July heating degree days 2066 2296  
Cooling Degree Days 0 0  
Month to date cooling degree days 0 0  
Year to date cooling degree days 591 419  
Moisture  
Dew Point 25 °F    
Average Humidity 61    
Maximum Humidity 81    
Minimum Humidity 41    
Precipitation  
Precipitation 0.00 in 0.01 in 0.12 in (2001)
Month to date precipitation T 0.04  
Year to date precipitation 10.15 15.57  
Sea Level Pressure  
Sea Level Pressure 29.80 in    
Wind  
Wind Speed 13 mph (SW)    
Max Wind Speed 25 mph    
Max Gust Speed 32 mph    
Visibility 10 miles    
Events      
T = Trace of Precipitation, MM = Missing Value Source: NWS Daily Summary

Daily Weather History Graph

Daily Weather History Graph

Search for Another Location

Airport:

Trip Planner

Search our weather history database for the weather conditions in past years. The results will help you decide how hot, cold, wet, or windy it might be!

Date:

Astronomy

Dec. 05, 2012 Rise Set
Actual Time 7:20 AM MST 4:03 PM MST
Civil Twilight 6:45 AM MST 4:38 PM MST
Nautical Twilight 6:07 AM MST 5:16 PM MST
Astronomical Twilight 5:30 AM MST 5:53 PM MST
Moon 11:14 PM MST (12/5) 11:27 AM MST (12/5)
Length of Visible Light 9h 52m
Length of Day
8h 42m
Waning Gibbous, 59% of the Moon is Illuminated
Dec 5
Waning Gibbous
Dec 6
Last Quarter
Dec 13
New
Dec 19
First Quarter
Dec 28
Full

Hourly Weather History & Observations

Time (MST) Temp. Windchill Dew Point Humidity Pressure Visibility Wind Dir Wind Speed Gust Speed Precip Events Conditions
12:56 AM 24.1 °F 11.0 °F 18.0 °F 77% 30.03 in 10.0 mi SSE 16.1 mph 25.3 mph N/A   Clear
1:56 AM 25.0 °F 10.6 °F 19.0 °F 78% 30.00 in 10.0 mi South 20.7 mph - N/A   Clear
2:56 AM 24.1 °F 11.0 °F 19.0 °F 81% 29.97 in 10.0 mi South 16.1 mph - N/A   Clear
3:56 AM 24.1 °F 11.0 °F 19.0 °F 81% 29.93 in 10.0 mi SSE 16.1 mph - N/A   Clear
4:56 AM 25.0 °F 12.6 °F 19.9 °F 81% 29.91 in 10.0 mi South 15.0 mph - N/A   Clear
5:56 AM 26.1 °F 14.0 °F 19.9 °F 78% 29.88 in 10.0 mi South 15.0 mph - N/A   Clear
7:56 AM 28.9 °F 18.6 °F 21.0 °F 72% 29.83 in 10.0 mi South 12.7 mph - N/A   Clear
8:56 AM 36.0 °F 28.5 °F 21.9 °F 57% 29.79 in 10.0 mi SSE 10.4 mph - N/A   Clear
9:56 AM 41.0 °F 33.1 °F 24.1 °F 51% 29.76 in 10.0 mi South 15.0 mph - N/A   Clear
10:56 AM 46.9 °F - 26.1 °F 44% 29.72 in 10.0 mi SSW 16.1 mph - N/A   Clear
11:56 AM 52.0 °F - 28.9 °F 41% 29.68 in 10.0 mi SSW 17.3 mph - N/A   Clear
12:56 PM 52.0 °F - 30.0 °F 43% 29.66 in 10.0 mi SW 8.1 mph - N/A   Partly Cloudy
1:56 PM 52.0 °F - 30.9 °F 45% 29.64 in 10.0 mi WSW 10.4 mph - N/A   Clear
2:56 PM 50.0 °F - 30.9 °F 48% 29.65 in 10.0 mi WSW 9.2 mph - N/A   Clear
3:56 PM 48.0 °F - 30.9 °F 52% 29.66 in 10.0 mi WSW 8.1 mph - N/A   Partly Cloudy
4:56 PM 48.0 °F - 30.9 °F 52% 29.67 in 10.0 mi WSW 9.2 mph - N/A   Mostly Cloudy
5:56 PM 44.1 °F 39.5 °F 30.0 °F 58% 29.69 in 10.0 mi West 8.1 mph - N/A   Clear
6:56 PM 41.0 °F 35.2 °F 30.0 °F 65% 29.77 in 10.0 mi NW 9.2 mph - N/A   Clear
7:56 PM 42.1 °F 35.7 °F 25.0 °F 51% 29.80 in 10.0 mi NW 11.5 mph - N/A   Partly Cloudy
8:56 PM 43.0 °F 34.0 °F 23.0 °F 45% 29.82 in 10.0 mi NW 21.9 mph 32.2 mph N/A   Mostly Cloudy
9:56 PM 35.1 °F 26.9 °F 21.9 °F 59% 29.84 in 10.0 mi WNW 11.5 mph - N/A   Partly Cloudy
10:56 PM 34.0 °F 24.2 °F 24.1 °F 67% 29.85 in 10.0 mi West 15.0 mph - N/A   Clear
11:56 PM 33.1 °F 23.0 °F 23.0 °F 66% 29.84 in 10.0 mi WNW 15.0 mph - N/A   Clear